記事タイトル:Comet C/2004 V3 (Siding Spring) 

最新の情報は「更新」や「再読み込み」ボタンを押してリロードしてご覧ください。

書き込み欄へ  ヘルプ
お名前: 佐藤 裕久   
11月3.4日UT、R. H. McNaughtはG. J. Garraddが得たSiding Springの0.5-m Uppsala Schmidt
望遠鏡+CCDの画像から下記の天体を発見した。その後、Siding Springの1.0-m f/8反射+CCDで
得た画像から少し拡散状であるのがわかった。
直ちにNEO Confirmation Pageに4U4D875として掲載されA. C. Gilmore(Mount John天文台、
1.0-m f/7.7反射+CCD)によって確認された。

発見位置は次のとおり、

     2004 UT             R.A. (2000) Decl.       Mag.
     Nov.  3.39963   21 45 05.68   -45 38 51.5   18.8

暫定放物線軌道要素と位置推算表は次のとおり、

Orbital elements:
    C/2004 V3 (Siding Spring)
T 2005 Jan. 22.836 TT                                   MPC
q   4.15415              (2000.0)            P               Q
                   Peri.  334.694       +0.872522       +0.482176
                   Node   354.211       -0.194252       +0.194333
e   1.0            Incl.   51.393       -0.448300       +0.854249
From 27 observations 2004 Nov. 3-6.

Ephemeris:
    C/2004 V3 (Siding Spring)
Date    TT    R. A. (2000) Decl.     Delta      r     Elong.  Phase   m1
2004 11 01    21 44.74   -46 15.1    4.049    4.212    92.6    13.6  19.3
2004 11 11    21 46.93   -43 43.8    4.165    4.199    85.2    13.6  19.3
2004 11 21    21 50.82   -41 12.6    4.285    4.188    77.7    13.3  19.4
2004 12 01    21 56.09   -38 42.8    4.406    4.178    70.3    12.8  19.4
2004 12 11    22 02.47   -36 15.2    4.526    4.170    62.9    12.1  19.5
2004 12 21    22 09.74   -33 50.3    4.641    4.163    55.5    11.2  19.5

(IAUC 8429, MPEC 2004-V33)
[2004年11月7日 9時17分18秒]

この記事への返信をどうぞ。 自動改行されませんので、適当に改行を入れてください。
氏名
E-mail URL



記事一覧に戻る